QPF
0.05 0.05 0.08 0.11 0.10 0.11 0.08 0.04 0.04 0.05 0.05 0.05 0.03 0.03 0.02 0.02 0.02 0.02 0.01 0.02 0.03 0.04 0.04 0.04 0.05 0.06 0.06 0.06 0.05 0.04 0.04 0.04 0.03 0.03 0.03 0.05 0.06 0.05 0.05 0.06 0.07 0.04 0.03
0.10 0.11 0.12 0.13 0.11 0.10 0.09 0.07 0.06 0.07 0.08 0.06 0.04 0.03 0.03 0.02 0.02 0.02 0.02 0.01 0.02 0.02 0.04 0.06 0.06 0.06 0.08 0.08 0.07 0.04 0.03 0.04 0.04 0.03 0.03 0.04 0.05 0.05 0.05 0.05 0.06 0.07 0.05
0.10 0.11 0.13 0.14 0.11 0.09 0.08 0.07 0.06 0.07 0.10 0.11 0.07 0.05 0.04 0.03 0.02 0.02 0.02 0.02 0.01 0.02 0.04 0.06 0.06 0.06 0.09 0.10 0.11 0.09 0.06 0.04 0.04 0.04 0.04 0.04 0.05 0.05 0.05 0.05 0.05 0.07 0.10
0.07 0.09 0.08 0.08 0.07 0.07 0.07 0.06 0.04 0.04 0.06 0.10 0.11 0.08 0.05 0.04 0.03 0.03 0.02 0.02 0.02 0.03 0.05 0.08 0.10 0.09 0.09 0.10 0.09 0.08 0.07 0.05 0.04 0.04 0.04 0.05 0.06 0.06 0.05 0.06 0.05 0.05 0.08
0.04 0.06 0.07 0.08 0.07 0.06 0.06 0.05 0.03 0.02 0.03 0.05 0.09 0.10 0.08 0.05 0.04 0.04 0.03 0.03 0.02 0.02 0.03 0.05 0.06 0.07 0.08 0.10 0.10 0.07 0.05 0.03 0.03 0.03 0.03 0.06 0.07 0.06 0.06 0.05 0.06 0.05 0.05
0.03 0.04 0.04 0.05 0.06 0.06 0.05 0.05 0.03 0.03 0.03 0.04 0.06 0.09 0.08 0.06 0.04 0.04 0.03 0.03 0.03 0.02 0.02 0.03 0.04 0.03 0.04 0.06 0.07 0.07 0.05 0.03 0.02 0.02 0.02 0.04 0.06 0.07 0.08 0.07 0.06 0.07 0.06
0.04 0.04 0.04 0.04 0.05 0.06 0.06 0.07 0.06 0.04 0.05 0.06 0.07 0.07 0.07 0.06 0.04 0.04 0.04 0.04 0.03 0.02 0.02 0.02 0.03 0.04 0.03 0.03 0.04 0.05 0.05 0.04 0.03 0.02 0.02 0.03 0.04 0.05 0.08 0.10 0.08 0.07 0.08
0.03 0.04 0.05 0.05 0.06 0.06 0.07 0.08 0.08 0.07 0.06 0.07 0.08 0.08 0.08 0.07 0.06 0.05 0.05 0.05 0.04 0.03 0.02 0.02 0.02 0.02 0.02 0.02 0.02 0.02 0.03 0.04 0.04 0.03 0.02 0.03 0.03 0.04 0.06 0.08 0.09 0.08 0.07
0.02 0.02 0.02 0.03 0.04 0.05 0.06 0.07 0.07 0.08 0.08 0.08 0.07 0.08 0.08 0.07 0.06 0.05 0.05 0.05 0.05 0.04 0.03 0.02 0.02 0.01 0.01 0.02 0.01 0.01 0.01 0.02 0.03 0.03 0.03 0.03 0.03 0.04 0.06 0.08 0.09 0.10 0.09
0.03 0.04 0.03 0.02 0.02 0.04 0.05 0.06 0.06 0.06 0.07 0.08 0.08 0.07 0.08 0.06 0.05 0.05 0.05 0.05 0.05 0.05 0.04 0.03 0.03 0.02 0.02 0.02 0.02 0.01 0.01 0.01 0.02 0.03 0.03 0.03 0.04 0.05 0.06 0.08 0.09 0.10 0.10
0.02 0.03 0.04 0.04 0.03 0.03 0.04 0.05 0.04 0.04 0.05 0.06 0.07 0.07 0.07 0.07 0.06 0.05 0.05 0.05 0.05 0.05 0.05 0.03 0.03 0.02 0.02 0.02 0.02 0.01 0.01 0.01 0.01 0.03 0.04 0.05 0.05 0.05 0.06 0.06 0.07 0.09 0.09
0.01 0.01 0.02 0.03 0.03 0.02 0.02 0.04 0.05 0.04 0.04 0.04 0.05 0.05 0.05 0.08 0.08 0.08 0.06 0.05 0.06 0.06 0.05 0.03 0.02 0.02 0.03 0.03 0.02 0.01 0.01 0.01 0.02 0.03 0.04 0.05 0.04 0.04 0.05 0.06 0.07 0.08 0.08
0.01 0.01 0.01 0.02 0.02 0.02 0.02 0.02 0.03 0.04 0.04 0.04 0.04 0.04 0.04 0.05 0.07 0.07 0.07 0.07 0.07 0.07 0.06 0.04 0.03 0.02 0.03 0.04 0.04 0.02 0.02 0.02 0.02 0.02 0.03 0.05 0.06 0.05 0.05 0.05 0.06 0.07 0.07
0.01 0.01 0.02 0.02 0.02 0.02 0.02 0.02 0.02 0.03 0.03 0.04 0.05 0.05 0.04 0.05 0.06 0.08 0.08 0.08 0.08 0.07 0.07 0.06 0.04 0.03 0.03 0.04 0.04 0.03 0.03 0.02 0.02 0.02 0.02 0.04 0.05 0.07 0.07 0.06 0.06 0.06 0.07
0.00 0.01 0.01 0.01 0.01 0.02 0.02 0.02 0.02 0.02 0.03 0.03 0.04 0.05 0.06 0.06 0.07 0.08 0.08 0.09 0.09 0.08 0.07 0.05 0.04 0.03 0.04 0.04 0.04 0.04 0.03 0.04 0.03 0.03 0.02 0.03 0.03 0.04 0.05 0.05 0.04 0.05 0.06
0.00 0.00 0.01 0.01 0.01 0.02 0.02 0.02 0.02 0.02 0.03 0.03 0.03 0.05 0.06 0.06 0.07 0.07 0.08 0.08 0.09 0.09 0.07 0.04 0.03 0.03 0.04 0.05 0.05 0.04 0.04 0.04 0.04 0.03 0.02 0.02 0.02 0.02 0.03 0.03 0.04 0.04 0.04
0.00 0.00 0.00 0.01 0.01 0.01 0.02 0.02 0.03 0.03 0.03 0.03 0.02 0.03 0.03 0.04 0.05 0.05 0.06 0.07 0.07 0.08 0.07 0.05 0.03 0.03 0.03 0.04 0.05 0.05 0.05 0.05 0.05 0.05 0.04 0.03 0.03 0.03 0.03 0.03 0.03 0.04 0.05
0.00 0.00 0.00 0.00 0.00 0.01 0.01 0.02 0.03 0.03 0.03 0.03 0.02 0.02 0.02 0.02 0.03 0.03 0.04 0.04 0.05 0.05 0.05 0.05 0.04 0.03 0.02 0.03 0.04 0.06 0.06 0.06 0.05 0.06 0.06 0.05 0.03 0.03 0.03 0.04 0.03 0.03 0.04
0.00 0.00 0.00 0.00 0.00 0.00 0.01 0.01 0.02 0.03 0.03 0.03 0.03 0.03 0.03 0.02 0.02 0.02 0.02 0.03 0.03 0.04 0.04 0.04 0.04 0.03 0.03 0.03 0.04 0.06 0.07 0.07 0.06 0.06 0.06 0.05 0.04 0.03 0.03 0.03 0.03 0.03 0.04
0.00 0.00 0.00 0.00 0.00 0.00 0.00 0.01 0.01 0.02 0.02 0.03 0.03 0.03 0.03 0.03 0.02 0.02 0.02 0.02 0.03 0.03 0.04 0.04 0.05 0.04 0.04 0.04 0.04 0.06 0.08 0.09 0.07 0.06 0.06 0.05 0.05 0.04 0.03 0.03 0.03 0.03 0.03
0.00 0.00 0.00 0.00 0.00 0.00 0.00 0.01 0.01 0.02 0.02 0.02 0.02 0.02 0.02 0.03 0.03 0.03 0.03 0.03 0.04 0.04 0.05 0.05 0.05 0.05 0.05 0.05 0.04 0.05 0.06 0.08 0.09 0.08 0.07 0.06 0.05 0.04 0.03 0.03 0.04 0.04 0.04
0.00 0.00 0.00 0.00 0.00 0.00 0.00 0.01 0.02 0.02 0.02 0.02 0.02 0.02 0.02 0.02 0.02 0.03 0.03 0.03 0.04 0.05 0.06 0.06 0.06 0.05 0.04 0.05 0.05 0.04 0.05 0.06 0.07 0.08 0.08 0.07 0.06 0.05 0.04 0.04 0.04 0.05 0.05
0.00 0.00 0.00 0.00 0.00 0.00 0.00 0.01 0.02 0.02 0.02 0.01 0.01 0.01 0.01 0.01 0.02 0.02 0.02 0.02 0.02 0.03 0.04 0.05 0.05 0.05 0.04 0.04 0.05 0.05 0.04 0.05 0.05 0.05 0.07 0.08 0.07 0.07 0.05 0.04 0.05 0.04 0.04
0.01 0.00 0.00 0.00 0.00 0.00 0.00 0.01 0.02 0.01 0.01 0.01 0.01 0.01 0.01 0.01 0.01 0.02 0.02 0.02 0.02 0.02 0.02 0.03 0.03 0.03 0.03 0.04 0.05 0.06 0.06 0.05 0.04 0.04 0.05 0.06 0.06 0.07 0.07 0.06 0.06 0.05 0.05
0.01 0.00 0.00 0.00 0.00 0.00 0.00 0.01 0.02 0.01 0.01 0.01 0.00 0.01 0.01 0.01 0.01 0.03 0.03 0.03 0.02 0.01 0.02 0.02 0.03 0.04 0.05 0.05 0.06 0.07 0.07 0.07 0.06 0.05 0.05 0.05 0.04 0.04 0.05 0.06 0.06 0.06 0.05
0.01 0.01 0.00 0.00 0.00 0.00 0.00 0.01 0.01 0.02 0.01 0.01 0.01 0.01 0.01 0.02 0.02 0.03 0.04 0.04 0.03 0.02 0.01 0.02 0.02 0.03 0.04 0.05 0.05 0.05 0.05 0.06 0.05 0.05 0.04 0.04 0.04 0.04 0.05 0.05 0.05 0.05 0.05
MSLP
1019.61 1019.17 1018.60 1017.93 1017.22 1016.50 1015.81 1015.17 1014.58 1014.04 1013.53 1013.06 1012.62 1012.22 1011.88 1011.61 1011.43 1011.35 1011.36 1011.44 1011.57 1011.73 1011.89 1012.04 1012.17 1012.28 1012.37 1012.45 1012.51 1012.57 1012.63 1012.69 1012.78 1012.91 1013.10 1013.37 1013.71 1014.14 1014.62 1015.13 1015.64 1016.11 1016.52
1020.51 1020.03 1019.41 1018.68 1017.89 1017.09 1016.31 1015.59 1014.92 1014.31 1013.75 1013.24 1012.78 1012.36 1012.02 1011.75 1011.56 1011.47 1011.46 1011.52 1011.62 1011.74 1011.86 1011.98 1012.09 1012.20 1012.29 1012.38 1012.48 1012.58 1012.68 1012.79 1012.91 1013.07 1013.27 1013.52 1013.83 1014.21 1014.64 1015.09 1015.55 1015.98 1016.37
1021.32 1020.84 1020.20 1019.44 1018.60 1017.74 1016.90 1016.10 1015.37 1014.70 1014.09 1013.54 1013.04 1012.61 1012.25 1011.97 1011.78 1011.68 1011.65 1011.68 1011.75 1011.83 1011.92 1012.01 1012.09 1012.18 1012.28 1012.39 1012.51 1012.65 1012.81 1012.97 1013.14 1013.34 1013.55 1013.80 1014.09 1014.43 1014.79 1015.18 1015.57 1015.96 1016.31
1022.03 1021.55 1020.92 1020.15 1019.31 1018.43 1017.55 1016.71 1015.92 1015.19 1014.52 1013.91 1013.37 1012.91 1012.52 1012.23 1012.03 1011.92 1011.88 1011.89 1011.94 1012.00 1012.07 1012.14 1012.21 1012.29 1012.38 1012.51 1012.66 1012.84 1013.04 1013.26 1013.48 1013.71 1013.96 1014.21 1014.49 1014.78 1015.10 1015.43 1015.75 1016.08 1016.38
1022.61 1022.15 1021.54 1020.81 1019.99 1019.12 1018.24 1017.37 1016.54 1015.75 1015.01 1014.34 1013.74 1013.22 1012.80 1012.48 1012.26 1012.15 1012.11 1012.13 1012.19 1012.25 1012.33 1012.40 1012.47 1012.55 1012.66 1012.80 1012.97 1013.18 1013.41 1013.67 1013.93 1014.20 1014.46 1014.73 1015.00 1015.27 1015.54 1015.82 1016.10 1016.37 1016.62
1023.11 1022.67 1022.09 1021.41 1020.63 1019.81 1018.94 1018.07 1017.21 1016.37 1015.56 1014.81 1014.13 1013.55 1013.07 1012.72 1012.49 1012.38 1012.36 1012.41 1012.50 1012.61 1012.71 1012.81 1012.91 1013.02 1013.14 1013.29 1013.47 1013.69 1013.94 1014.21 1014.50 1014.78 1015.07 1015.34 1015.61 1015.86 1016.12 1016.37 1016.60 1016.83 1017.05
1023.56 1023.13 1022.59 1021.96 1021.25 1020.48 1019.66 1018.80 1017.92 1017.04 1016.17 1015.34 1014.58 1013.92 1013.39 1013.00 1012.75 1012.65 1012.66 1012.75 1012.90 1013.07 1013.25 1013.41 1013.56 1013.70 1013.84 1014.00 1014.18 1014.40 1014.64 1014.91 1015.19 1015.47 1015.75 1016.03 1016.29 1016.55 1016.80 1017.03 1017.25 1017.46 1017.65
1024.01 1023.56 1023.05 1022.48 1021.84 1021.14 1020.37 1019.55 1018.67 1017.76 1016.84 1015.95 1015.12 1014.39 1013.81 1013.37 1013.11 1013.02 1013.06 1013.21 1013.43 1013.68 1013.93 1014.17 1014.38 1014.57 1014.74 1014.91 1015.09 1015.28 1015.49 1015.72 1015.97 1016.23 1016.50 1016.77 1017.03 1017.29 1017.55 1017.79 1018.01 1018.22 1018.40
1024.45 1023.99 1023.50 1022.97 1022.39 1021.76 1021.06 1020.29 1019.44 1018.53 1017.59 1016.66 1015.79 1015.01 1014.38 1013.92 1013.65 1013.56 1013.63 1013.82 1014.10 1014.42 1014.76 1015.07 1015.34 1015.58 1015.77 1015.95 1016.11 1016.27 1016.44 1016.63 1016.83 1017.05 1017.29 1017.53 1017.79 1018.06 1018.32 1018.58 1018.82 1019.04 1019.23
1024.87 1024.38 1023.90 1023.41 1022.90 1022.34 1021.71 1021.00 1020.20 1019.33 1018.41 1017.49 1016.60 1015.81 1015.15 1014.67 1014.38 1014.29 1014.37 1014.59 1014.90 1015.27 1015.66 1016.03 1016.36 1016.63 1016.85 1017.03 1017.18 1017.31 1017.43 1017.56 1017.71 1017.88 1018.07 1018.29 1018.54 1018.80 1019.08 1019.36 1019.62 1019.87 1020.07
1025.24 1024.73 1024.25 1023.79 1023.33 1022.83 1022.28 1021.65 1020.93 1020.13 1019.26 1018.38 1017.53 1016.75 1016.10 1015.61 1015.30 1015.19 1015.25 1015.46 1015.78 1016.16 1016.57 1016.97 1017.32 1017.63 1017.87 1018.05 1018.19 1018.29 1018.37 1018.46 1018.55 1018.67 1018.82 1019.01 1019.24 1019.50 1019.78 1020.07 1020.36 1020.62 1020.85
1025.51 1024.99 1024.51 1024.08 1023.66 1023.23 1022.75 1022.20 1021.57 1020.86 1020.09 1019.29 1018.50 1017.77 1017.15 1016.67 1016.35 1016.20 1016.22 1016.39 1016.66 1017.01 1017.40 1017.80 1018.16 1018.48 1018.74 1018.93 1019.07 1019.16 1019.22 1019.26 1019.32 1019.40 1019.51 1019.67 1019.88 1020.13 1020.40 1020.70 1021.00 1021.28 1021.52
1025.68 1025.16 1024.69 1024.28 1023.89 1023.51 1023.10 1022.63 1022.10 1021.49 1020.83 1020.13 1019.44 1018.79 1018.21 1017.75 1017.41 1017.23 1017.19 1017.28 1017.48 1017.77 1018.10 1018.46 1018.81 1019.13 1019.40 1019.61 1019.76 1019.86 1019.92 1019.95 1019.99 1020.04 1020.13 1020.26 1020.45 1020.68 1020.94 1021.23 1021.53 1021.81 1022.06
1025.75 1025.25 1024.80 1024.40 1024.05 1023.69 1023.33 1022.93 1022.48 1021.98 1021.43 1020.85 1020.27 1019.71 1019.20 1018.76 1018.41 1018.18 1018.07 1018.07 1018.18 1018.37 1018.64 1018.95 1019.27 1019.58 1019.86 1020.09 1020.26 1020.39 1020.47 1020.51 1020.55 1020.60 1020.68 1020.79 1020.95 1021.16 1021.41 1021.68 1021.96 1022.23 1022.47
1025.76 1025.29 1024.86 1024.49 1024.14 1023.81 1023.47 1023.11 1022.73 1022.32 1021.87 1021.41 1020.93 1020.46 1020.02 1019.61 1019.27 1019.00 1018.82 1018.73 1018.74 1018.84 1019.02 1019.27 1019.56 1019.85 1020.15 1020.40 1020.61 1020.78 1020.89 1020.97 1021.02 1021.08 1021.16 1021.26 1021.41 1021.60 1021.82 1022.07 1022.33 1022.57 1022.80
1025.76 1025.33 1024.93 1024.56 1024.22 1023.88 1023.55 1023.21 1022.86 1022.51 1022.15 1021.77 1021.40 1021.02 1020.65 1020.29 1019.95 1019.66 1019.42 1019.26 1019.19 1019.20 1019.31 1019.49 1019.74 1020.03 1020.33 1020.61 1020.86 1021.07 1021.23 1021.34 1021.43 1021.51 1021.59 1021.69 1021.83 1022.00 1022.20 1022.42 1022.64 1022.86 1023.06
1025.79 1025.40 1025.03 1024.67 1024.31 1023.95 1023.60 1023.25 1022.92 1022.59 1022.28 1021.98 1021.69 1021.39 1021.09 1020.78 1020.47 1020.17 1019.91 1019.70 1019.56 1019.51 1019.56 1019.69 1019.91 1020.19 1020.49 1020.79 1021.07 1021.31 1021.51 1021.66 1021.78 1021.88 1021.98 1022.09 1022.22 1022.37 1022.55 1022.74 1022.94 1023.13 1023.30
1025.87 1025.53 1025.18 1024.82 1024.44 1024.05 1023.66 1023.28 1022.93 1022.61 1022.33 1022.08 1021.85 1021.62 1021.38 1021.13 1020.86 1020.58 1020.31 1020.08 1019.91 1019.82 1019.83 1019.93 1020.12 1020.38 1020.67 1020.98 1021.28 1021.54 1021.76 1021.94 1022.09 1022.21 1022.32 1022.44 1022.57 1022.71 1022.87 1023.04 1023.21 1023.37 1023.52
1026.00 1025.69 1025.36 1024.99 1024.59 1024.16 1023.73 1023.32 1022.94 1022.61 1022.33 1022.11 1021.92 1021.75 1021.57 1021.38 1021.16 1020.92 1020.68 1020.45 1020.28 1020.17 1020.15 1020.23 1020.39 1020.63 1020.90 1021.20 1021.50 1021.77 1022.00 1022.19 1022.35 1022.49 1022.61 1022.74 1022.87 1023.01 1023.16 1023.31 1023.46 1023.59 1023.71
1026.14 1025.86 1025.53 1025.16 1024.73 1024.27 1023.80 1023.34 1022.93 1022.58 1022.31 1022.10 1021.95 1021.82 1021.70 1021.56 1021.40 1021.21 1021.01 1020.81 1020.65 1020.54 1020.51 1020.57 1020.71 1020.91 1021.17 1021.44 1021.71 1021.97 1022.20 1022.39 1022.56 1022.70 1022.84 1022.98 1023.11 1023.25 1023.40 1023.53 1023.66 1023.77 1023.87
1026.26 1025.99 1025.67 1025.28 1024.83 1024.34 1023.83 1023.35 1022.91 1022.54 1022.26 1022.07 1021.93 1021.84 1021.77 1021.68 1021.58 1021.44 1021.29 1021.13 1020.99 1020.90 1020.87 1020.91 1021.02 1021.20 1021.41 1021.66 1021.90 1022.14 1022.35 1022.54 1022.71 1022.87 1023.01 1023.16 1023.30 1023.45 1023.58 1023.71 1023.81 1023.90 1023.98
1026.32 1026.05 1025.72 1025.32 1024.85 1024.34 1023.81 1023.30 1022.85 1022.47 1022.18 1021.99 1021.87 1021.81 1021.77 1021.73 1021.67 1021.58 1021.48 1021.36 1021.25 1021.17 1021.15 1021.18 1021.27 1021.42 1021.61 1021.82 1022.04 1022.25 1022.45 1022.64 1022.82 1022.98 1023.15 1023.30 1023.46 1023.60 1023.73 1023.85 1023.93 1024.00 1024.05
1026.31 1026.03 1025.68 1025.26 1024.79 1024.26 1023.72 1023.20 1022.73 1022.34 1022.05 1021.86 1021.75 1021.70 1021.69 1021.68 1021.65 1021.61 1021.54 1021.46 1021.38 1021.33 1021.31 1021.34 1021.42 1021.55 1021.71 1021.90 1022.11 1022.31 1022.52 1022.71 1022.90 1023.09 1023.27 1023.44 1023.61 1023.75 1023.88 1023.98 1024.05 1024.09 1024.10
1026.23 1025.92 1025.56 1025.13 1024.64 1024.10 1023.56 1023.03 1022.55 1022.16 1021.87 1021.67 1021.56 1021.51 1021.51 1021.51 1021.51 1021.49 1021.46 1021.41 1021.36 1021.33 1021.33 1021.36 1021.45 1021.57 1021.74 1021.93 1022.13 1022.35 1022.56 1022.78 1023.00 1023.21 1023.41 1023.61 1023.78 1023.93 1024.05 1024.13 1024.18 1024.19 1024.18
1026.09 1025.77 1025.38 1024.94 1024.44 1023.90 1023.34 1022.81 1022.34 1021.94 1021.64 1021.43 1021.31 1021.25 1021.24 1021.25 1021.26 1021.26 1021.25 1021.22 1021.20 1021.20 1021.22 1021.28 1021.39 1021.53 1021.71 1021.92 1022.15 1022.39 1022.63 1022.88 1023.13 1023.37 1023.61 1023.82 1024.00 1024.16 1024.26 1024.33 1024.35 1024.33 1024.29
1025.94 1025.59 1025.18 1024.73 1024.21 1023.67 1023.12 1022.59 1022.11 1021.70 1021.39 1021.17 1021.03 1020.96 1020.93 1020.93 1020.94 1020.95 1020.95 1020.96 1020.97 1021.00 1021.06 1021.16 1021.30 1021.48 1021.69 1021.93 1022.19 1022.47 1022.76 1023.04 1023.33 1023.60 1023.85 1024.08 1024.27 1024.42 1024.52 1024.57 1024.56 1024.52 1024.45
Thickness
5574 5575 5577 5578 5580 5582 5585 5588 5591 5594 5597 5600 5603 5606 5609 5612 5615 5618 5620 5622 5624 5626 5628 5630 5632 5634 5636 5637 5639 5641 5642 5643 5644 5645 5646 5646 5647 5647 5647 5647 5647 5647 5647
5562 5563 5564 5567 5569 5570 5573 5576 5579 5582 5585 5588 5591 5595 5598 5602 5605 5608 5610 5613 5615 5617 5619 5622 5624 5626 5628 5629 5631 5633 5634 5635 5637 5638 5639 5640 5640 5641 5641 5641 5641 5641 5642
5550 5551 5553 5555 5557 5559 5561 5564 5566 5570 5573 5576 5579 5583 5587 5591 5594 5597 5600 5603 5605 5607 5610 5612 5615 5617 5619 5621 5623 5624 5625 5627 5629 5630 5631 5633 5634 5635 5635 5635 5635 5636 5636
5537 5539 5540 5542 5544 5546 5548 5551 5554 5557 5560 5563 5566 5570 5575 5579 5583 5586 5589 5592 5595 5597 5599 5602 5605 5607 5610 5612 5614 5616 5617 5619 5621 5623 5624 5625 5626 5628 5629 5629 5629 5630 5630
5524 5526 5527 5529 5531 5533 5535 5537 5539 5542 5546 5549 5553 5557 5562 5566 5570 5574 5578 5581 5584 5586 5589 5591 5594 5596 5599 5602 5604 5606 5608 5610 5612 5614 5616 5618 5619 5620 5622 5623 5623 5623 5623
5510 5512 5513 5514 5516 5518 5520 5522 5525 5528 5531 5534 5539 5543 5548 5553 5558 5562 5565 5568 5572 5574 5577 5580 5582 5584 5587 5591 5594 5596 5598 5601 5603 5605 5608 5610 5612 5613 5615 5616 5616 5617 5617
5496 5497 5498 5499 5501 5503 5505 5507 5510 5512 5515 5519 5522 5527 5535 5541 5545 5549 5552 5555 5558 5561 5564 5567 5570 5573 5576 5579 5582 5585 5588 5590 5593 5595 5598 5601 5603 5605 5607 5608 5609 5610 5610
5481 5482 5483 5483 5485 5487 5488 5490 5492 5495 5498 5500 5502 5507 5515 5523 5529 5534 5537 5540 5543 5547 5550 5553 5557 5560 5563 5567 5570 5573 5576 5580 5582 5585 5588 5591 5594 5596 5598 5600 5601 5602 5603
5466 5466 5467 5468 5468 5470 5471 5473 5475 5478 5480 5483 5485 5487 5492 5500 5505 5515 5520 5524 5527 5531 5535 5539 5543 5546 5550 5554 5557 5561 5565 5568 5571 5574 5577 5581 5584 5587 5589 5591 5593 5594 5595
5451 5451 5451 5451 5452 5453 5455 5457 5459 5460 5463 5466 5469 5472 5475 5479 5484 5493 5502 5506 5509 5514 5518 5524 5528 5531 5536 5540 5544 5549 5552 5556 5559 5562 5566 5570 5573 5576 5579 5581 5583 5585 5587
5436 5435 5436 5435 5436 5437 5439 5441 5442 5444 5446 5449 5452 5456 5459 5464 5468 5473 5482 5488 5492 5497 5501 5506 5512 5516 5521 5525 5530 5534 5539 5543 5547 5550 5554 5558 5562 5565 5568 5571 5573 5575 5577
5420 5419 5420 5419 5420 5422 5423 5424 5426 5428 5430 5433 5436 5439 5443 5447 5451 5455 5462 5469 5475 5481 5485 5491 5496 5501 5506 5511 5515 5520 5524 5529 5533 5537 5541 5545 5549 5553 5556 5559 5562 5565 5567
5403 5403 5404 5404 5404 5406 5407 5409 5410 5413 5415 5417 5420 5424 5427 5431 5435 5439 5444 5450 5457 5465 5470 5476 5481 5486 5490 5495 5500 5504 5509 5513 5517 5522 5527 5532 5535 5539 5543 5546 5550 5553 5556
5388 5387 5388 5388 5389 5391 5392 5393 5395 5398 5400 5402 5405 5408 5411 5415 5419 5423 5427 5431 5438 5448 5454 5460 5464 5469 5474 5478 5484 5488 5493 5497 5501 5506 5512 5517 5521 5525 5529 5533 5537 5540 5543
5373 5373 5373 5374 5374 5376 5377 5378 5380 5382 5384 5387 5389 5392 5396 5399 5403 5407 5410 5413 5418 5427 5438 5443 5447 5452 5455 5460 5466 5471 5477 5481 5486 5491 5496 5501 5507 5511 5515 5519 5523 5527 5531
5359 5359 5359 5359 5360 5361 5363 5364 5366 5368 5369 5372 5374 5377 5380 5384 5387 5391 5394 5398 5402 5407 5417 5427 5429 5433 5438 5443 5449 5455 5460 5465 5470 5475 5480 5486 5491 5496 5501 5505 5510 5514 5518
5346 5345 5346 5346 5347 5348 5349 5350 5352 5353 5355 5357 5359 5362 5366 5368 5372 5376 5379 5383 5387 5391 5398 5408 5412 5417 5421 5426 5432 5438 5444 5449 5454 5459 5464 5471 5476 5482 5487 5491 5496 5500 5504
5333 5333 5333 5333 5333 5334 5335 5336 5338 5339 5341 5343 5345 5348 5351 5354 5358 5361 5365 5369 5373 5377 5382 5390 5396 5401 5406 5411 5416 5422 5428 5434 5439 5445 5450 5456 5461 5467 5472 5476 5481 5486 5490
5321 5320 5320 5320 5320 5320 5322 5323 5325 5326 5328 5330 5332 5335 5338 5341 5345 5348 5351 5356 5360 5365 5369 5374 5382 5387 5392 5397 5401 5408 5413 5419 5424 5430 5435 5441 5446 5451 5456 5461 5466 5471 5476
5309 5308 5308 5307 5308 5308 5310 5311 5312 5314 5316 5318 5320 5323 5326 5329 5333 5336 5340 5344 5348 5352 5356 5361 5368 5374 5378 5383 5387 5393 5399 5404 5410 5415 5420 5426 5431 5435 5441 5446 5453 5457 5461
5297 5296 5296 5296 5296 5297 5298 5300 5301 5303 5305 5307 5310 5312 5316 5319 5322 5325 5329 5333 5336 5340 5344 5348 5355 5360 5366 5369 5373 5377 5383 5389 5395 5400 5405 5411 5417 5422 5425 5431 5435 5440 5444
5287 5286 5285 5285 5286 5286 5288 5290 5292 5293 5295 5297 5300 5302 5306 5309 5312 5315 5319 5322 5325 5328 5332 5336 5342 5347 5353 5356 5359 5363 5367 5373 5382 5388 5390 5396 5399 5405 5411 5415 5421 5425 5429
5277 5276 5276 5276 5276 5276 5278 5280 5282 5284 5285 5287 5289 5293 5296 5300 5302 5304 5308 5311 5314 5317 5321 5325 5330 5335 5340 5344 5346 5350 5353 5358 5366 5371 5372 5379 5384 5390 5396 5401 5405 5409 5414
5267 5267 5267 5267 5267 5268 5269 5271 5273 5274 5275 5277 5279 5282 5285 5289 5292 5294 5297 5300 5303 5307 5311 5315 5320 5325 5328 5330 5333 5336 5340 5344 5351 5356 5358 5363 5369 5374 5380 5385 5390 5394 5399
5259 5259 5259 5259 5259 5259 5260 5262 5264 5265 5266 5268 5270 5273 5275 5279 5283 5285 5287 5290 5293 5297 5300 5304 5309 5313 5316 5319 5321 5323 5326 5329 5337 5344 5345 5348 5354 5358 5364 5370 5376 5380 5385
5252 5252 5252 5251 5251 5251 5252 5254 5256 5256 5258 5260 5262 5265 5267 5270 5274 5276 5277 5280 5283 5287 5290 5294 5298 5302 5305 5308 5311 5312 5315 5317 5322 5329 5333 5334 5339 5342 5348 5356 5361 5365 5370